TimeEST,TemperatureF,Dew PointF,Humidity,Sea Level PressureIn,VisibilityMPH,Wind Direction,Wind SpeedMPH,Gust SpeedMPH,PrecipitationIn,Events,Conditions,WindDirDegrees,DateUTC
12:03 AM,33.8,33.8,100,29.49,5.0,NNW,11.5,-,0.00,Rain,Ice Pellets,340,2012-12-27 05:03:00
12:19 AM,33.8,33.8,100,29.49,5.0,NNW,13.8,-,0.00,Rain,Ice Pellets,330,2012-12-27 05:19:00
12:40 AM,33.8,32.0,93,29.48,2.5,NNW,12.7,-,0.01,Rain,Ice Pellets,330,2012-12-27 05:40:00
12:53 AM,33.1,32.0,96,29.53,4.0,NNW,11.5,-,0.01,Rain,Ice Pellets,330,2012-12-27 05:53:00
1:22 AM,33.8,32.0,93,29.49,4.0,NW,11.5,-,0.00,Rain,Ice Pellets,320,2012-12-27 06:22:00
1:42 AM,33.8,30.2,87,29.49,7.0,NNW,12.7,-,0.00,Rain,Ice Pellets,330,2012-12-27 06:42:00
1:53 AM,33.1,30.9,92,29.54,7.0,NW,10.4,-,0.00,Rain,Ice Pellets,320,2012-12-27 06:53:00
2:53 AM,33.1,30.0,89,29.56,10.0,NW,13.8,-,0.00,Rain,Ice Pellets,320,2012-12-27 07:53:00
3:53 AM,33.1,28.9,85,29.58,10.0,NW,15.0,-,0.00,Rain,Ice Pellets,320,2012-12-27 08:53:00
4:53 AM,33.1,28.9,85,29.61,10.0,NW,15.0,-,0.00,Rain,Ice Pellets,310,2012-12-27 09:53:00
5:36 AM,33.8,28.4,81,29.59,10.0,NW,11.5,-,0.00,Rain,Ice Pellets,310,2012-12-27 10:36:00
5:53 AM,33.1,27.0,78,29.64,10.0,NW,24.2,31.1,0.00,Rain,Ice Pellets,310,2012-12-27 10:53:00
6:53 AM,33.1,27.0,78,29.69,10.0,NW,16.1,-,0.00,Rain,Ice Pellets,310,2012-12-27 11:53:00
8:53 AM,34.0,27.0,75,29.74,10.0,WNW,20.7,32.2,N/A,,Overcast,300,2012-12-27 13:53:00
9:53 AM,34.0,26.1,73,29.78,10.0,WNW,24.2,32.2,N/A,,Overcast,300,2012-12-27 14:53:00
10:16 AM,33.8,26.6,75,29.74,10.0,WNW,26.5,33.4,N/A,,Overcast,300,2012-12-27 15:16:00
10:53 AM,36.0,25.0,64,29.82,10.0,WNW,31.1,39.1,N/A,,Mostly Cloudy,300,2012-12-27 15:53:00
11:53 AM,34.0,24.1,67,29.83,10.0,NW,20.7,34.5,N/A,,Overcast,310,2012-12-27 16:53:00
12:53 PM,34.0,24.1,67,29.82,10.0,NW,23.0,41.4,N/A,,Overcast,310,2012-12-27 17:53:00
1:53 PM,34.0,24.1,67,29.83,10.0,NW,21.9,27.6,N/A,,Overcast,310,2012-12-27 18:53:00
2:53 PM,35.1,25.0,67,29.86,10.0,NW,21.9,33.4,N/A,,Overcast,310,2012-12-27 19:53:00
3:53 PM,34.0,25.0,70,29.89,10.0,WNW,19.6,-,N/A,,Overcast,290,2012-12-27 20:53:00
4:53 PM,34.0,25.0,70,29.91,10.0,WNW,19.6,25.3,N/A,,Overcast,290,2012-12-27 21:53:00
5:38 PM,33.8,24.8,70,29.90,10.0,NW,15.0,20.7,N/A,,Overcast,310,2012-12-27 22:38:00
5:53 PM,34.0,25.0,70,29.95,10.0,NW,12.7,-,N/A,,Overcast,310,2012-12-27 22:53:00
6:53 PM,34.0,26.1,73,29.97,10.0,WNW,15.0,-,N/A,,Overcast,290,2012-12-27 23:53:00
7:53 PM,34.0,26.1,73,29.98,10.0,WNW,21.9,-,N/A,,Overcast,290,2012-12-28 00:53:00
8:53 PM,34.0,25.0,70,30.01,10.0,NW,17.3,-,N/A,,Overcast,320,2012-12-28 01:53:00
9:22 PM,33.8,24.8,70,29.95,10.0,NW,21.9,-,N/A,,Mostly Cloudy,320,2012-12-28 02:22:00
9:53 PM,33.1,25.0,72,30.01,10.0,NW,13.8,28.8,N/A,,Mostly Cloudy,320,2012-12-28 02:53:00
10:16 PM,33.8,24.8,70,29.99,10.0,NW,11.5,-,N/A,,Overcast,320,2012-12-28 03:16:00
10:53 PM,33.1,25.0,72,30.04,10.0,NW,15.0,-,N/A,,Overcast,310,2012-12-28 03:53:00
11:53 PM,33.1,26.1,75,30.04,10.0,WNW,18.4,-,N/A,,Overcast,300,2012-12-28 04:53:00